Skip to main content Skip to accessibility
This website is not compatible with your web browser. You should install a newer browser. If you live in Jersey and need help upgrading call the States of Jersey web team on 440099.
Homegov.je

L'înformâtion et les sèrvices publyis pouor I'Île dé Jèrri

  • Choose the service you want to log in to:

  • gov.je

    Update your notification preferences

  • one.gov.je

    Access government and parish services

  • CAESAR

    Clear goods through customs or claim relief

  • Talentlink

    View or update your States of Jersey job application

Local METARs

METAR EGJJ 071950Z 22015KT 9999 BKN026 11/09 Q1015

METAR EGJB 071950Z 21015KT 9999 FEW012 BKN022 11/09 Q1014

METAR EGJA 071820Z 24017KT 9999 SCT017 BKN026 11/09 Q1015

METAR LFRD 072000Z AUTO 21008KT 9999 BKN023 BKN029 10/08 Q1016 TEMPO BKN008

METAR LFRC 072000Z AUTO 21012KT 9999 FEW011 OVC025 10/08 Q1014

 

 

 

​Times are in Greenwich Mean Time (GMT) and not British Summer Time (BST). They will be one hour different during BST.

Back to top
rating button